Historyczne dane pomiarowe

Dodano dane terminowe – wersja testowa.

Dane z okresu 1951-2019

Wersja bazy: 1.34 [2019-03-16, lista zmian], aktualizacja planowana na 2019-04-15

Dane meteo z obszaru Polski uzyskane na podstawie danych udostępnionych przez Instytut Meteorologii i Gospodarki Wodnej – Państwowy Instytut Badawczy.

 

Wybierz Datę:    

       

TemperaturaWilgotnośćWiatrCiśnienieOpadyŚniegCzas trwania zjawisk
 Stacja t tx tn tng RH VA  wxwx mslp ppp RRR   cm mm wxwxwxwxwxwxwx
1956-11-09-11.7 -4.0-16.4-24.9 83.3- 4.7 0.7---- 0.0-- 15---------
1956-11-08-12.5 -4.3-15.7-14.3 80.3- 0.7 1.0---- 0.0-- 18---------
1956-11-07 -3.8 -1.8 -4.7 -3.1 92.3- 8.0 3.3---- 6.7-- 12---------
1956-11-06 -3.0 2.6 -3.4 -4.8 94.3- 7.7 4.7---- 6.5-- 3---------
1956-11-05 1.7 2.5 -8.2-12.1 83.3- 6.3 3.0---- 2.4------------
1956-11-04 -4.8 0.1 -7.7 -6.8 84.5- 2.7 1.7---- 0.0------------
1956-11-03 -3.5 -1.3 -4.6 -4.7 84.3- 6.7 2.0---- 0.1------------
1956-11-02 -0.7 2.7 -6.2 -9.0 86.5- 6.7 1.0---- 0.1------------
1956-11-01 -2.9 7.2-10.5-14.1 77.8- 0.0 0.0---- 0.0------------
1956-10-31 -6.3 1.8 -9.3 -2.6 91.3- 5.0 1.3---- 0.0------------
1956-10-30 1.9 3.7 0.0 -0.1 92.0- 8.0 1.3---- 0.0-- 4---------
1956-10-29 0.7 4.4 -0.1 -0.8 94.8- 8.0 1.3---- 3.4------------
1956-10-28 6.2 12.0 4.3 2.0 70.3- 5.7 3.0---- 2.0------------
1956-10-27 9.1 13.5 3.2 1.0 82.8- 7.3 2.3---- 0.3------------
1956-10-26 7.2 13.6 -0.5 -3.1 74.5- 4.7 2.0---- 0.1------------
1956-10-25 4.5 13.4 -0.2 0.7 88.3- 0.0 0.7---- 0.0------------
1956-10-24 5.4 12.1 0.2 -3.9 89.3- 3.7 0.3---- 0.0------------
1956-10-23 6.9 16.5 1.0 -2.9 79.8- 0.0 0.7---- 0.0------------
1956-10-22 7.8 17.1 3.6 -0.4 79.5- 0.7 1.3---- 0.0------------
1956-10-21 9.1 13.5 6.8 6.0 87.0- 5.3 1.7---- 0.0------------
1956-10-20 9.4 12.8 6.8 3.2 89.8- 8.0 1.3---- 0.0------------
1956-10-19 8.4 11.3 5.7 4.9 91.0- 7.7 2.0---- 0.6------------
1956-10-18 6.9 13.5 -1.6 -5.3 86.0- 7.3 0.7---- 1.0------------
1956-10-17 3.0 12.7 -3.3 -6.6 80.8- 0.0 0.7---- 0.0------------
1956-10-16 1.2 9.9 -4.5 -8.0 78.3- 0.0 0.7---- 0.0------------
1956-10-15 1.3 8.3 -1.8 -1.9 84.0- 1.3 1.3---- 0.0------------
1956-10-14 5.9 8.7 4.8 3.3 86.0- 7.0 5.0---- 5.9------------
1956-10-13 6.1 10.1 1.7 -1.9 72.0- 8.0 3.7---- 0.0------------
1956-10-12 5.0 10.7 -1.0 -4.8 72.0- 3.0 3.0---- 0.0------------
1956-10-11 1.3 8.0 -4.1 -7.6 73.3- 2.3 1.3---- 0.0------------
1956-10-10 0.7 4.7 -2.1 2.0 80.0- 4.7 1.7---- 0.0------------
1956-10-09 1.8 6.1 -4.4 -8.3 81.3- 3.7 0.7---- 3.1------------
1956-10-08 0.1 6.6 -3.9 -9.2 89.0- 1.7 1.0---- 0.0-- 5---------
1956-10-07 0.3 3.5 -1.1 -2.7 87.5- 4.7 3.7---- 0.1-- 20---------
1956-10-06 1.4 7.7 -0.1 4.4 97.3- 8.0 2.3---- 33.4------------
1956-10-05 7.8 12.7 1.8 -2.3 75.8- 7.3 0.3---- 7.0------------
1956-10-04 8.7 12.2 7.5 8.6 95.5- 8.0 1.0---- 6.4------------
1956-10-03 14.9 20.8 12.0 4.6 67.5- 7.3 2.0---- 2.3------------
1956-10-02 14.1 22.7 4.9 -0.1 64.5- 1.3 2.7---- 0.0------------
1956-10-01 11.1 21.8 5.7 0.5 85.0- 4.0 0.3---- 0.0------------
1956-09-30 12.0 20.0 0.3 2.7 84.8- 1.3 1.0---- 0.0------------
1956-09-29 12.3 19.2 3.4 -0.8 80.5- 2.7 1.3---- 0.0------------
1956-09-28 8.7 15.3 5.6 4.4 91.8- 4.0 1.0---- 0.0------------
1956-09-27 16.2 20.1 8.9 2.9 57.3- 5.3 3.3---- 0.2------------
1956-09-26 9.6 20.2 0.1 -4.4 67.8- 0.0 1.0---- 0.0------------
1956-09-25 7.5 17.3 1.8 -2.7 83.3- 0.7 1.0---- 0.0------------
1956-09-24 7.7 16.2 1.6 -2.6 87.5- 0.0 1.0---- 0.0------------
1956-09-23 8.5 17.2 2.5 -2.1 82.8- 0.0 0.7---- 0.0------------
1956-09-22 8.5 18.2 2.1 -1.4 82.0- 0.3 0.3---- 0.0------------
1956-09-21 7.6 16.2 0.6 -3.9 81.8- 1.0 0.7---- 0.0------------
1956-09-20 5.4 13.8 -1.7 -6.6 83.3- 3.7 0.7---- 0.0------------
1956-09-19 3.4 11.3 -2.7 -7.2 85.5- 0.7 0.3---- 0.0------------
1956-09-18 2.9 8.2 0.9 -1.4 87.3- 6.0 1.3---- 0.7------------
1956-09-17 6.2 11.3 5.4 1.1 88.0- 7.7 1.7---- 12.6------------
1956-09-16 11.4 17.0 3.6 -1.2 72.8- 4.3 2.0---- 0.0------------
1956-09-15 9.4 15.1 4.3 0.1 77.3- 6.0 1.0---- 0.0------------
1956-09-14 5.5 7.2 3.3 1.5 88.8- 8.0 0.7---- 1.0------------
1956-09-13 4.4 6.3 2.8 2.7 90.3- 7.7 2.0---- 8.2------------
1956-09-12 8.6 13.2 5.7 5.7 85.3- 8.0 2.3---- 9.4------------
1956-09-11 14.1 17.3 9.3 5.0 81.5- 8.0 2.0---- 14.0------------
252.7 ms

 

Źródłem pochodzenia danych jest Instytut Meteorologii i Gospodarki Wodnej – Państwowy Instytut Badawczy. Dane Instytutu Meteorologii i Gospodarki Wodnej – Państwowego Instytutu Badawczego zostały przetworzone.

Dane źródłowe można odnaleźć na stronie https://dane.imgw.pl